When you browse on this site, cookies collect data to enhance your experience and personalize the content and advertising you see.
Visit our Privacy Policy to learn more. By continuing to use the site, you agree to this use of cookies and data.
  • en Suisse
  • Liste des pays
  • À 7 jours
  • Température de l'eau
  • Carte satellitaire
  • Carte météo
  • Widgets météo
  • user-avatar
    Se connecter

    Météo par heure à Mostar

    Ce jour, 22 Janvier, Mardi

    Heure Température Précipitation Vent Pression Humidité
    00:00 +5°C° 0.7 mm 3 m/s 752 mmHg 85%
    01:00 +5°C° 0.7 mm 3 m/s 752 mmHg 85%
    02:00 +5°C° 1.2 mm 3 m/s 752 mmHg 86%
    03:00 +5°C° 1.2 mm 3 m/s 751 mmHg 87%
    04:00 +5°C° 1.2 mm 3 m/s 750 mmHg 88%
    05:00 +5°C° 1 mm 3 m/s 750 mmHg 88%
    06:00 +7°C° 1 mm 3 m/s 749 mmHg 88%
    07:00 +7°C° 1 mm 3 m/s 749 mmHg 88%
    08:00 +6°C° 1.5 mm 4 m/s 749 mmHg 88%
    09:00 +5°C° 1.5 mm 4 m/s 749 mmHg 89%
    10:00 +5°C° 1.5 mm 4 m/s 748 mmHg 89%
    11:00 +5°C° 2.9 mm 3 m/s 748 mmHg 89%
    12:00 +5°C° 2.9 mm 3 m/s 747 mmHg 90%
    13:00 +5°C° 2.9 mm 3 m/s 746 mmHg 90%
    14:00 +5°C° 2 mm 3 m/s 746 mmHg 90%
    15:00 +5°C° 2 mm 3 m/s 745 mmHg 90%
    16:00 +5°C° 2 mm 3 m/s 745 mmHg 90%
    17:00 +5°C° 2.1 mm 3 m/s 744 mmHg 91%
    18:00 +6°C° 2.1 mm 2 m/s 744 mmHg 92%
    19:00 +6°C° 2.1 mm 2 m/s 743 mmHg 93%
    20:00 +6°C° 2.2 mm 2 m/s 743 mmHg 93%
    21:00 +6°C° 2.2 mm 2 m/s 743 mmHg 93%
    22:00 +6°C° 2.2 mm 2 m/s 743 mmHg 93%
    23:00 +7°C° 0.6 mm 3 m/s 743 mmHg 92%

    Demain, 23 Janvier, Mercredi

    Heure Température Précipitation Vent Pression Humidité
    00:00 +6°C° 0.6 mm 4 m/s 743 mmHg 91%
    01:00 +7°C° 0.6 mm 5 m/s 743 mmHg 91%
    02:00 +7°C° 0.7 mm 5 m/s 743 mmHg 90%
    03:00 +7°C° 0.7 mm 5 m/s 742 mmHg 89%
    04:00 +6°C° 0.7 mm 5 m/s 742 mmHg 88%
    05:00 +6°C° 1 mm 5 m/s 742 mmHg 87%
    06:00 +6°C° 1 mm 5 m/s 742 mmHg 87%
    07:00 +6°C° 1 mm 5 m/s 742 mmHg 87%
    08:00 +6°C° 1.1 mm 4 m/s 742 mmHg 85%
    09:00 +7°C° 1.1 mm 4 m/s 742 mmHg 84%
    10:00 +7°C° 1.1 mm 4 m/s 742 mmHg 82%
    11:00 +8°C° 0.6 mm 3 m/s 742 mmHg 81%
    12:00 +8°C° 0.6 mm 3 m/s 742 mmHg 80%
    13:00 +8°C° 0.6 mm 3 m/s 741 mmHg 78%
    14:00 +8°C° 0.4 mm 3 m/s 741 mmHg 80%
    15:00 +8°C° 0.4 mm 2 m/s 741 mmHg 81%
    16:00 +8°C° 0.4 mm 2 m/s 741 mmHg 82%
    17:00 +7°C° 0.1 mm 2 m/s 741 mmHg 83%
    18:00 +6°C° 0.1 mm 2 m/s 742 mmHg 84%
    19:00 +5°C° 0.1 mm 2 m/s 742 mmHg 85%
    20:00 +5°C° 0 mm 2 m/s 742 mmHg 85%
    21:00 +5°C° 0 mm 2 m/s 742 mmHg 85%
    22:00 +4°C° 0 mm 2 m/s 742 mmHg 85%
    23:00 +4°C° 0 mm 2 m/s 742 mmHg 84%

    Après-demain, 24 Janvier, Jeudi

    Heure Température Précipitation Vent Pression Humidité
    00:00 +3°C° 0 mm 3 m/s 742 mmHg 82%
    01:00 +2°C° 0 mm 3 m/s 742 mmHg 81%
    02:00 +2°C° 0 mm 3 m/s 741 mmHg 80%
    03:00 +2°C° 0 mm 3 m/s 741 mmHg 79%
    04:00 +2°C° 0 mm 3 m/s 741 mmHg 78%
    05:00 +2°C° 0 mm 3 m/s 741 mmHg 78%
    06:00 +1°C° 0 mm 3 m/s 741 mmHg 77%
    07:00 +1°C° 0 mm 3 m/s 741 mmHg 77%
    08:00 +1°C° 0 mm 4 m/s 741 mmHg 74%
    09:00 +3°C° 0 mm 4 m/s 741 mmHg 71%
    10:00 +5°C° 0 mm 4 m/s 741 mmHg 69%
    11:00 +5°C° 0 mm 4 m/s 741 mmHg 67%
    12:00 +6°C° 0 mm 4 m/s 741 mmHg 66%
    13:00 +7°C° 0 mm 4 m/s 741 mmHg 65%
    14:00 +6°C° 0 mm 4 m/s 741 mmHg 67%
    15:00 +6°C° 0 mm 4 m/s 742 mmHg 69%
    16:00 +5°C° 0 mm 4 m/s 742 mmHg 71%
    17:00 +5°C° 0.1 mm 4 m/s 742 mmHg 71%
    18:00 +4°C° 0.1 mm 4 m/s 743 mmHg 71%
    19:00 +3°C° 0.1 mm 5 m/s 743 mmHg 72%
    20:00 +3°C° 0 mm 5 m/s 743 mmHg 71%
    21:00 +4°C° 0 mm 4 m/s 743 mmHg 70%
    22:00 +4°C° 0 mm 4 m/s 743 mmHg 69%
    23:00 +3°C° 0 mm 4 m/s 743 mmHg 68%

    25 Janvier, Vendredi

    Heure Température Précipitation Vent Pression Humidité
    00:00 +2°C° 0 mm 5 m/s 743 mmHg 67%
    01:00 +2°C° 0 mm 5 m/s 743 mmHg 67%
    02:00 +2°C° 0 mm 5 m/s 743 mmHg 67%
    03:00 +2°C° 0 mm 5 m/s 743 mmHg 67%
    04:00 +2°C° 0 mm 5 m/s 744 mmHg 66%
    05:00 +2°C° 0 mm 5 m/s 744 mmHg 66%
    06:00 +1°C° 0 mm 5 m/s 744 mmHg 66%
    07:00 +1°C° 0 mm 5 m/s 744 mmHg 65%
    08:00 +2°C° 0 mm 5 m/s 744 mmHg 63%
    09:00 +3°C° 0 mm 6 m/s 744 mmHg 62%
    10:00 +3°C° 0 mm 6 m/s 745 mmHg 60%
    11:00 +4°C° 0 mm 6 m/s 744 mmHg 60%
    12:00 +4°C° 0 mm 6 m/s 744 mmHg 59%
    13:00 +4°C° 0 mm 6 m/s 744 mmHg 59%
    14:00 +4°C° 0 mm 6 m/s 744 mmHg 60%
    15:00 +3°C° 0 mm 6 m/s 744 mmHg 60%
    16:00 +3°C° 0 mm 5 m/s 744 mmHg 61%
    17:00 +2°C° 0 mm 5 m/s 745 mmHg 62%
    18:00 +1°C° 0 mm 5 m/s 745 mmHg 63%
    19:00 0°C° 0 mm 5 m/s 746 mmHg 63%
    20:00 0°C° 0 mm 5 m/s 746 mmHg 63%
    21:00 0°C° 0 mm 4 m/s 746 mmHg 62%
    22:00 0°C° 0 mm 4 m/s 746 mmHg 61%
    23:00 0°C° 0 mm 5 m/s 746 mmHg 61%

    26 Janvier, Samedi

    Heure Température Précipitation Vent Pression Humidité
    00:00 0°C° 0 mm 5 m/s 747 mmHg 61%
    01:00 -1°C° 0 mm 5 m/s 747 mmHg 61%
    02:00 -1°C° 0 mm 5 m/s 747 mmHg 61%
    03:00 -1°C° 0 mm 5 m/s 747 mmHg 60%
    04:00 -1°C° 0 mm 5 m/s 747 mmHg 60%
    05:00 -2°C° 0 mm 5 m/s 747 mmHg 60%
    06:00 -2°C° 0 mm 4 m/s 747 mmHg 60%
    07:00 -2°C° 0 mm 4 m/s 748 mmHg 60%
    08:00 -1°C° 0 mm 4 m/s 748 mmHg 58%
    09:00 -1°C° 0 mm 4 m/s 748 mmHg 56%
    10:00 0°C° 0 mm 4 m/s 748 mmHg 55%
    11:00 +1°C° 0 mm 4 m/s 747 mmHg 54%
    12:00 +3°C° 0 mm 3 m/s 747 mmHg 54%
    13:00 +4°C° 0 mm 3 m/s 747 mmHg 53%
    14:00 +4°C° 0 mm 3 m/s 747 mmHg 56%
    15:00 +3°C° 0 mm 3 m/s 747 mmHg 59%
    16:00 +4°C° 0 mm 2 m/s 746 mmHg 62%
    17:00 +3°C° 0 mm 2 m/s 746 mmHg 65%
    18:00 +2°C° 0 mm 2 m/s 747 mmHg 67%
    19:00 +1°C° 0 mm 2 m/s 747 mmHg 70%
    20:00 +1°C° 0 mm 2 m/s 747 mmHg 69%
    21:00 -1°C° 0 mm 2 m/s 747 mmHg 68%
    22:00 -1°C° 0 mm 2 m/s 747 mmHg 67%
    23:00 -1°C° 0 mm 2 m/s 746 mmHg 66%

    27 Janvier, Dimanche

    Heure Température Précipitation Vent Pression Humidité
    00:00 +1°C° 0 mm 2 m/s 746 mmHg 64%
    01:00 +1°C° 0 mm 2 m/s 746 mmHg 63%
    02:00 +1°C° 0 mm 2 m/s 746 mmHg 63%
    03:00 +1°C° 0 mm 2 m/s 745 mmHg 62%
    04:00 +2°C° 0 mm 1 m/s 745 mmHg 62%
    05:00 +1°C° 0 mm 2 m/s 745 mmHg 64%
    06:00 +1°C° 0 mm 2 m/s 745 mmHg 67%
    07:00 +1°C° 0 mm 2 m/s 745 mmHg 69%
    08:00 +3°C° 0 mm 2 m/s 745 mmHg 71%
    09:00 +4°C° 0 mm 2 m/s 745 mmHg 73%
    10:00 +4°C° 0 mm 3 m/s 745 mmHg 76%
    11:00 +5°C° 0.1 mm 3 m/s 745 mmHg 77%
    12:00 +5°C° 0.1 mm 3 m/s 744 mmHg 79%
    13:00 +5°C° 0.1 mm 4 m/s 744 mmHg 80%
    14:00 +5°C° 0.2 mm 4 m/s 744 mmHg 81%
    15:00 +5°C° 0.2 mm 4 m/s 744 mmHg 82%
    16:00 +5°C° 0.2 mm 5 m/s 743 mmHg 82%
    17:00 +5°C° 0.1 mm 4 m/s 743 mmHg 82%
    18:00 +4°C° 0.1 mm 4 m/s 743 mmHg 82%
    19:00 +4°C° 0.1 mm 4 m/s 743 mmHg 82%
    20:00 +3°C° 0.1 mm 5 m/s 743 mmHg 82%
    21:00 +5°C° 0.1 mm 5 m/s 743 mmHg 82%
    22:00 +5°C° 0.1 mm 5 m/s 743 mmHg 82%
    23:00 +5°C° 3.2 mm 4 m/s 742 mmHg 85%
    Voir plus